Home   Weather   City of Melbourne   Past weeks
Flag for USA

Past Weather in City of Melbourne, Kentucky, USA — Yesterday and Last 2 Weeks

Now
68 °F

Mostly cloudy.


Feels Like: 68 °F
Forecast: 77 / 63 °F
Wind: 12 mph from Southwest

Location: Cincinnati Municipal Airport Lunken Field

Current Time: Apr 18, 2019 at 6:54:32 am

Latest Report: Apr 18, 2019 at 5:53 am


Visibility: 10 mi

Pressure: 29.75 "Hg

Humidity: 51%

Dew Point: 49 °F

Location of City of MelbourneLocation

Past Weather in City of Melbourne — Graph

°F

City of Melbourne Temperature Yesterday

Maximum temperature yesterday: 75 °F (at 4:53 pm)
Minimum temperature yesterday: 49 °F (at 5:53 am)
Average temperature yesterday: 63 °F

High & Low Weather Summary for the Past Weeks

 TemperatureHumidityPressure
High81 °F (Apr 11, 2:53 pm)100% (Apr 9, 3:58 am)30.35 "Hg (Apr 9, 3:58 am)
Low35 °F (Apr 3, 5:53 am)20% (Apr 9, 5:53 pm)29.28 "Hg (Apr 14, 2:53 pm)
Average57 °F67%29.97 "Hg
* Reported Apr 3 4:53 am — Apr 18 4:53 am, City of Melbourne. Weather by CustomWeather, © 2019

Note: Actual official high and low records may vary slightly from our data, if they occured in-between our weather recording intervals... More about our weather records

Advertising

City of Melbourne Weather History for the Previous 24 Hours

Scroll right to see more
 ConditionsComfort  
Time TempWeatherWind HumidityBarometerVisibility
4:53 am
Thu, Apr 18
67 °FPassing clouds.12 mph51%29.76 "Hg10 mi
3:53 am69 °FMostly cloudy.13 mph47%29.76 "Hg10 mi
2:53 am63 °FPassing clouds.8 mph60%29.77 "Hg10 mi
1:53 am65 °FPassing clouds.9 mph56%29.78 "Hg10 mi
12:53 am65 °FPassing clouds.10 mph56%29.80 "Hg10 mi
11:53 pm
Wed, Apr 17
60 °FMostly cloudy.7 mph78%29.82 "Hg10 mi
10:53 pm63 °FClear.5 mph65%29.81 "Hg10 mi
9:53 pm66 °FPassing clouds.6 mph59%29.83 "Hg10 mi
8:53 pm70 °FMostly cloudy.10 mph53%29.84 "Hg10 mi
7:53 pm70 °FSunny.10 mph53%29.83 "Hg10 mi
6:53 pm74 °FSunny.13 mph48%29.85 "Hg10 mi
5:53 pm73 °FSunny.14 mph48%29.86 "Hg10 mi
4:53 pm75 °FSunny.9 mph47%29.85 "Hg10 mi
3:53 pm74 °FSunny.16 mph45%29.90 "Hg10 mi
2:53 pm74 °FSunny.12 mph45%29.95 "Hg10 mi
1:53 pm74 °FSunny.10 mph48%29.97 "Hg10 mi
12:53 pm71 °FSunny.9 mph53%29.99 "Hg10 mi
11:53 am69 °FSunny.14 mph55%30.01 "Hg10 mi
10:53 am67 °FSunny.9 mph57%30.03 "Hg10 mi
9:53 am63 °FSunny.5 mph70%30.03 "Hg10 mi
8:53 am56 °FSunny.No wind87%30.04 "Hg10 mi
7:53 am51 °FSunny.No wind92%30.05 "Hg10 mi
6:53 am50 °FClear.No wind93%30.03 "Hg10 mi
Weather by CustomWeather, © 2019

See weather overview